📊 Raw Sensor Data
Showing records 41776 to 41800 of 84,988 total
| ID | Distance (ft) | Battery V | Battery A | Int Temp (°F) | Int Humid (%) | Ext Temp (°F) | Solar V | RSSI | SNR | Time Stamp |
|---|---|---|---|---|---|---|---|---|---|---|
| 43225 | 15.6 | 4.14 | 24 | 83 | 51 | 75 | 4.50 | -68 | 7 | 06/11/2025 06:45 PM |
| 43224 | 15.6 | 4.03 | 0 | 84 | 51 | 76 | 5.10 | -68 | 7 | 06/11/2025 06:30 PM |
| 43223 | 15.6 | 4.03 | 0 | 86 | 51 | 77 | 5.10 | -69 | 8 | 06/11/2025 06:15 PM |
| 43222 | 15.6 | 4.03 | 0 | 88 | 50 | 79 | 5.10 | -69 | 8 | 06/11/2025 06:00 PM |
| 43221 | 15.6 | 4.14 | 0 | 89 | 49 | 81 | 5.10 | -71 | 7 | 06/11/2025 05:45 PM |
| 43220 | 15.7 | 4.13 | 0 | 90 | 48 | 79 | 5.10 | -71 | 7 | 06/11/2025 05:30 PM |
| 43219 | 15.6 | 4.03 | 0 | 90 | 47 | 83 | 5.10 | -70 | 8 | 06/11/2025 05:15 PM |
| 43218 | 15.7 | 4.03 | 0 | 90 | 47 | 82 | 5.10 | -70 | 8 | 06/11/2025 05:00 PM |
| 43217 | 15.6 | 4.03 | 0 | 90 | 46 | 83 | 5.10 | -68 | 7 | 06/11/2025 04:45 PM |
| 43216 | 15.6 | 4.03 | 0 | 91 | 46 | 81 | 5.10 | -71 | 8 | 06/11/2025 04:30 PM |
| 43215 | 15.6 | 4.03 | 0 | 91 | 46 | 79 | 5.10 | -70 | 7 | 06/11/2025 04:15 PM |
| 43214 | 15.7 | 4.03 | 0 | 92 | 45 | 82 | 5.10 | -70 | 8 | 06/11/2025 04:00 PM |
| 43213 | 15.7 | 4.03 | 0 | 92 | 44 | 81 | 5.10 | -69 | 7 | 06/11/2025 03:45 PM |
| 43212 | 15.7 | 4.03 | 0 | 93 | 43 | 86 | 5.10 | -68 | 7 | 06/11/2025 03:30 PM |
| 43211 | 15.7 | 4.03 | 0 | 92 | 42 | 85 | 5.10 | -69 | 8 | 06/11/2025 03:15 PM |
| 43210 | 15.6 | 4.03 | 0 | 90 | 42 | 85 | 5.10 | -68 | 8 | 06/11/2025 03:00 PM |
| 43209 | 15.6 | 4.02 | 0 | 89 | 41 | 81 | 5.10 | -69 | 8 | 06/11/2025 02:45 PM |
| 43208 | 15.6 | 4.03 | 0 | 88 | 41 | 81 | 5.10 | -70 | 8 | 06/11/2025 02:30 PM |
| 43207 | 15.6 | 4.03 | 0 | 87 | 41 | 79 | 5.10 | -69 | 7 | 06/11/2025 02:15 PM |
| 43206 | 15.6 | 4.07 | 0 | 85 | 41 | 81 | 5.10 | -71 | 7 | 06/11/2025 02:00 PM |
| 43205 | 15.7 | 4.02 | 0 | 84 | 42 | 76 | 5.10 | -72 | 7 | 06/11/2025 01:45 PM |
| 43204 | 15.6 | 4.02 | 0 | 84 | 41 | 77 | 5.10 | -70 | 7 | 06/11/2025 01:30 PM |
| 43203 | 15.6 | 4.02 | 0 | 83 | 41 | 78 | 5.10 | -69 | 8 | 06/11/2025 01:15 PM |
| 43202 | 15.6 | 4.13 | 0 | 81 | 42 | 77 | 5.10 | -68 | 7 | 06/11/2025 01:00 PM |
| 43201 | 15.6 | 4.02 | 0 | 79 | 42 | 76 | 5.10 | -70 | 8 | 06/11/2025 12:45 PM |